Weather History for Bennettsville, SC

Change the Weather History Date:

Monday, August 18, 2014

  Actual Average (KFLO) Record (KFLO)
Temperature  
Mean Temperature 83 °F 80 °F  
Max Temperature 95 °F 89 °F 101 °F (1988)
Min Temperature 71 °F 71 °F 55 °F (1979)
Degree Days  
Heating Degree Days 0 0  
Month to date heating degree days 0  
Since 1 June heating degree days 1  
Since 1 July heating degree days 0  
Cooling Degree Days 18 15  
Month to date cooling degree days 280  
Year to date cooling degree days 1486  
Since 1 June cooling degree days 1179  
Growing Degree Days 33 (Base 50)    
Moisture  
Dew Point 69 °F    
Average Humidity 69    
Maximum Humidity 100    
Minimum Humidity 36    
Precipitation  
Precipitation 0.00 in 0.17 in 3.21 in (2005)
Month to date precipitation 3.12  
Year to date precipitation 28.36  
Sea Level Pressure  
Sea Level Pressure 29.87 in    
Wind  
Wind Speed 3 mph (SSW)    
Max Wind Speed 10 mph    
Max Gust Speed -    
Visibility 8 miles    
Events Thunderstorm    
T = Trace of Precipitation, MM = Missing Value Source: NWS Daily Summary

Daily Weather History Graph

Daily Weather History Graph

Search for Another Location

Airport:

Trip Planner

Search our weather history database for the weather conditions in past years. The results will help you decide how hot, cold, wet, or windy it might be!

Date:

Astronomy

Aug. 18, 2014 Rise Set
Actual Time 6:41 AM EDT 8:03 PM EDT
Civil Twilight 6:15 AM EDT 8:29 PM EDT
Nautical Twilight 5:43 AM EDT 9:01 PM EDT
Astronomical Twilight 5:10 AM EDT 9:34 PM EDT
Moon 12:50 AM EDT (8/18) 3:01 PM EDT (8/18)
Length of Visible Light 14h 14m
Length of Day
13h 21m
Last Quarter, 38% of the Moon is Illuminated
Aug 18
Last Quarter
Aug 25
New
Sep 2
First Quarter
Sep 8
Full
Sep 15
Last Quarter

Hourly Weather History & Observations

Time (EDT) Temp. Heat Index Dew Point Humidity Pressure Visibility Wind Dir Wind Speed Gust Speed Precip Events Conditions
12:15 AM 71.6 °F - 71.6 °F 100% 29.96 in 4.0 mi Calm Calm - N/A   Clear
12:35 AM 71.6 °F - 71.6 °F 100% 29.96 in 5.0 mi Calm Calm - N/A   Clear
12:55 AM 71.6 °F - 71.6 °F 100% 29.95 in 5.0 mi Calm Calm - N/A   Clear
1:15 AM 71.6 °F - 71.6 °F 100% 29.95 in 5.0 mi Calm Calm - N/A   Clear
1:35 AM 71.6 °F - 71.6 °F 100% 29.95 in 5.0 mi Calm Calm - N/A   Scattered Clouds
1:55 AM 71.6 °F - 71.6 °F 100% 29.94 in 5.0 mi Calm Calm - N/A   Scattered Clouds
2:15 AM 71.6 °F - 71.6 °F 100% 29.93 in 4.0 mi Calm Calm - N/A   Scattered Clouds
2:35 AM 71.6 °F - 71.6 °F 100% 29.93 in 5.0 mi Calm Calm - N/A   Clear
3:15 AM 73.4 °F - 73.4 °F 100% 29.92 in 7.0 mi Calm Calm - N/A   Mostly Cloudy
3:35 AM 75.2 °F - 75.2 °F 100% 29.92 in 7.0 mi Calm Calm - N/A   Mostly Cloudy
3:55 AM 75.2 °F - 75.2 °F 100% 29.92 in 7.0 mi Calm Calm - N/A   Mostly Cloudy
4:15 AM 75.2 °F - 75.2 °F 100% 29.92 in 7.0 mi Calm Calm - N/A   Mostly Cloudy
4:35 AM 73.4 °F - 73.4 °F 100% 29.92 in 7.0 mi Calm Calm - N/A   Scattered Clouds
4:55 AM 71.6 °F - 71.6 °F 100% 29.92 in 5.0 mi Calm Calm - N/A   Clear
5:15 AM 71.6 °F - 71.6 °F 100% 29.92 in 4.0 mi Calm Calm - N/A   Clear
5:35 AM 73.4 °F - 73.4 °F 100% 29.92 in 5.0 mi Calm Calm - N/A   Clear
5:55 AM 73.4 °F - 73.4 °F 100% 29.91 in 5.0 mi Calm Calm - N/A   Clear
6:15 AM 73.4 °F - 73.4 °F 100% 29.91 in 5.0 mi Calm Calm - N/A   Clear
6:35 AM 73.4 °F - 73.4 °F 100% 29.91 in 5.0 mi Calm Calm - N/A   Clear
6:55 AM 73.4 °F - 73.4 °F 100% 29.91 in 5.0 mi Calm Calm - N/A   Clear
7:15 AM 73.4 °F - 73.4 °F 100% 29.92 in 4.0 mi South 3.5 mph - N/A   Clear
7:35 AM 75.2 °F - 75.2 °F 100% 29.93 in 4.0 mi SW 4.6 mph - N/A   Scattered Clouds
7:55 AM 75.2 °F - 75.2 °F 100% 29.93 in 5.0 mi South 3.5 mph - N/A   Scattered Clouds
8:15 AM 77.0 °F - 77.0 °F 100% 29.93 in 5.0 mi Calm Calm - N/A   Clear
8:35 AM 77.0 °F - 77.0 °F 100% 29.92 in 5.0 mi Calm Calm - N/A   Clear
8:55 AM 78.8 °F - 78.8 °F 100% 29.92 in 7.0 mi Calm Calm - N/A   Clear
9:15 AM 80.6 °F 87.1 °F 77.0 °F 89% 29.93 in 7.0 mi WSW 5.8 mph - N/A   Clear
9:35 AM 80.6 °F 87.1 °F 77.0 °F 89% 29.92 in 7.0 mi SSW 5.8 mph - N/A   Clear
9:55 AM 82.4 °F 90.9 °F 77.0 °F 84% 29.92 in 10.0 mi SSW 5.8 mph - N/A   Clear
10:15 AM 84.2 °F 92.3 °F 75.2 °F 74% 29.92 in 7.0 mi WSW 5.8 mph - N/A   Clear
10:35 AM 86.0 °F 93.4 °F 73.4 °F 66% 29.92 in 10.0 mi South 8.1 mph - N/A   Clear
10:55 AM 86.0 °F 93.4 °F 73.4 °F 66% 29.92 in 10.0 mi WSW 6.9 mph - N/A   Clear
11:15 AM 87.8 °F 95.6 °F 73.4 °F 62% 29.92 in 10.0 mi SW 6.9 mph - N/A   Clear
11:35 AM 87.8 °F 95.6 °F 73.4 °F 62% 29.91 in 10.0 mi SSW 4.6 mph - N/A   Clear
11:55 AM 87.8 °F 95.6 °F 73.4 °F 62% 29.91 in 10.0 mi SSW 5.8 mph - N/A   Clear
12:15 PM 89.6 °F 98.2 °F 73.4 °F 59% 29.90 in 10.0 mi SSW 9.2 mph - N/A   Clear
12:35 PM 89.6 °F 96.2 °F 71.6 °F 55% 29.90 in 10.0 mi SSW 6.9 mph - N/A   Clear
12:55 PM 91.4 °F 100.1 °F 73.4 °F 55% 29.90 in 10.0 mi South 6.9 mph - N/A   Scattered Clouds
1:15 PM 91.4 °F 100.1 °F 73.4 °F 55% 29.89 in 10.0 mi SW 5.8 mph - N/A   Scattered Clouds
1:35 PM 91.4 °F 98.4 °F 71.6 °F 52% 29.88 in 10.0 mi South 8.1 mph - N/A   Scattered Clouds
1:55 PM 95.0 °F 103.2 °F 71.6 °F 47% 29.87 in 10.0 mi WSW 5.8 mph - N/A   Scattered Clouds
2:15 PM 93.2 °F 100.5 °F 71.6 °F 49% 29.86 in 10.0 mi SSW 8.1 mph - N/A   Scattered Clouds
2:35 PM 91.4 °F 96.8 °F 69.8 °F 49% 29.85 in 10.0 mi South 6.9 mph - N/A   Scattered Clouds
2:55 PM 93.2 °F 98.8 °F 69.8 °F 46% 29.84 in 10.0 mi SW 5.8 mph - N/A   Scattered Clouds
3:15 PM 87.8 °F 91.4 °F 68.0 °F 52% 29.83 in 10.0 mi Calm Calm - N/A   Mostly Cloudy
3:35 PM 93.2 °F 97.7 °F 68.0 °F 44% 29.82 in 10.0 mi South 9.2 mph - N/A Thunderstorm Mostly Cloudy
3:55 PM 93.2 °F 97.7 °F 68.0 °F 44% 29.80 in 10.0 mi South 9.2 mph - N/A   Scattered Clouds
4:15 PM 93.2 °F 97.7 °F 68.0 °F 44% 29.79 in 10.0 mi South 8.1 mph - N/A   Clear
4:35 PM 95.0 °F 98.5 °F 66.2 °F 39% 29.79 in 10.0 mi South 9.2 mph - N/A   Scattered Clouds
4:55 PM 91.4 °F 93.2 °F 64.4 °F 41% 29.78 in 10.0 mi SSW 10.4 mph - N/A   Scattered Clouds
5:15 PM 91.4 °F 94.0 °F 66.2 °F 43% 29.79 in 10.0 mi SSW 6.9 mph - N/A   Scattered Clouds
5:35 PM 89.6 °F 91.1 °F 64.4 °F 43% 29.79 in 10.0 mi SW 4.6 mph - N/A   Mostly Cloudy
5:55 PM 89.6 °F 90.1 °F 62.6 °F 40% 29.80 in 10.0 mi SW 3.5 mph - N/A   Mostly Cloudy
6:15 PM 91.4 °F 92.1 °F 62.6 °F 38% 29.79 in 10.0 mi SSW 5.8 mph - N/A   Scattered Clouds
6:35 PM 89.6 °F 89.5 °F 60.8 °F 38% 29.80 in 10.0 mi SSW 9.2 mph - N/A   Scattered Clouds
6:55 PM 89.6 °F 89.5 °F 60.8 °F 38% 29.80 in 10.0 mi SSW 9.2 mph - N/A   Scattered Clouds
7:15 PM 89.6 °F 88.9 °F 59.0 °F 36% 29.80 in 10.0 mi SSW 6.9 mph - N/A   Clear
7:35 PM 87.8 °F 87.6 °F 60.8 °F 40% 29.80 in 10.0 mi SSW 6.9 mph - N/A   Clear
7:55 PM 86.0 °F 86.1 °F 60.8 °F 43% 29.79 in 10.0 mi SSW 6.9 mph - N/A   Clear
8:15 PM 86.0 °F 86.1 °F 60.8 °F 43% 29.79 in 10.0 mi SSW 5.8 mph - N/A   Clear
8:35 PM 84.2 °F 84.4 °F 60.8 °F 45% 29.79 in 10.0 mi SSW 5.8 mph - N/A   Clear
8:55 PM 84.2 °F 84.4 °F 60.8 °F 45% 29.80 in 10.0 mi SW 10.4 mph - N/A   Clear
9:15 PM 84.2 °F 83.8 °F 59.0 °F 42% 29.81 in 10.0 mi SW 10.4 mph - N/A   Clear
9:35 PM 82.4 °F 81.7 °F 55.4 °F 39% 29.81 in 10.0 mi SW 8.1 mph - N/A   Clear
9:55 PM 82.4 °F 81.7 °F 55.4 °F 39% 29.82 in 10.0 mi WSW 4.6 mph - N/A   Clear
10:15 PM 80.6 °F 80.5 °F 55.4 °F 42% 29.82 in 10.0 mi WSW 4.6 mph - N/A   Clear
10:35 PM 80.6 °F 80.5 °F 55.4 °F 42% 29.82 in 10.0 mi SW 4.6 mph - N/A   Clear
10:55 PM 80.6 °F 80.5 °F 55.4 °F 42% 29.83 in 10.0 mi WSW 4.6 mph - N/A   Clear
11:15 PM 78.8 °F - 55.4 °F 44% 29.83 in 10.0 mi SSW 4.6 mph - N/A   Clear
11:35 PM 78.8 °F - 55.4 °F 44% 29.83 in 10.0 mi Calm Calm - N/A   Clear